Theta_e
297 292 289 291 299 301 303 308 309 307 312 324 320 326 337 345 356 357 354 357 361 364 365 364 363 361 360 360 360 360 360 361
295 293 297 299 303 304 304 306 308 307 310 321 329 323 333 346 359 357 353 357 362 364 364 364 364 361 360 361 361 360 361 361
291 294 300 304 304 302 302 303 305 307 307 313 319 320 328 340 351 356 354 357 360 363 364 365 364 362 361 361 360 360 361 361
289 295 302 304 303 304 303 304 306 306 307 312 317 316 316 318 333 357 355 356 358 363 363 363 363 362 360 360 360 360 361 361
292 295 299 302 304 302 303 304 305 306 305 310 316 317 317 315 316 353 356 355 356 358 362 363 362 361 360 360 359 360 360 360
293 295 295 301 303 302 304 304 310 310 303 300 310 312 311 312 312 326 354 354 353 356 358 358 358 360 360 360 360 360 360 360
291 293 296 300 299 303 307 304 306 307 309 310 312 311 307 306 311 311 351 351 352 353 354 355 355 357 360 360 360 360 360 359
299 298 296 300 300 301 302 302 303 305 309 313 313 310 308 306 305 308 341 350 352 350 350 350 356 356 355 356 356 355 355 355
301 302 301 299 300 303 301 298 301 302 306 309 309 308 307 307 306 304 307 344 348 346 346 345 349 354 354 354 354 352 352 353
303 304 300 299 302 301 302 302 307 307 307 308 307 306 306 307 308 309 312 316 345 343 343 342 344 352 351 352 351 350 349 350
305 303 302 304 302 302 302 307 309 309 309 307 307 307 307 308 310 311 311 314 320 349 341 341 341 349 350 350 349 349 346 349
304 302 302 302 303 302 304 307 307 308 307 307 306 307 307 308 308 310 312 314 323 347 348 345 340 348 347 348 348 345 345 348
303 304 302 305 300 301 306 308 307 307 308 310 310 310 309 309 310 312 313 316 325 347 349 344 344 345 342 343 344 342 342 344
302 305 305 302 294 303 307 306 306 307 308 310 309 310 310 312 310 311 315 316 321 331 346 347 344 347 341 341 340 341 341 345
297 302 302 300 296 303 306 306 305 306 307 309 309 310 310 313 315 314 315 317 316 321 331 346 348 343 346 340 340 341 341 344
293 300 301 299 298 304 307 307 307 307 308 311 312 313 315 316 315 314 313 317 316 317 334 346 346 343 347 345 341 343 341 344
298 302 299 298 299 303 306 306 308 309 310 311 312 315 317 318 318 322 318 318 320 318 321 337 341 342 342 340 344 339 342 346
299 303 300 298 298 303 306 309 308 308 308 309 310 312 315 316 318 318 321 321 319 320 314 325 338 336 342 342 343 344 345 348
295 300 300 299 296 299 307 308 309 309 310 310 310 310 312 314 316 318 317 321 324 322 320 316 337 341 338 332 341 342 343 343
299 295 290 298 288 295 302 303 306 306 307 307 308 310 311 313 314 316 317 320 323 323 325 319 332 340 339 336 336 340 341 345
Wind_Speed
5 4 6 7 5 7 3 8 8 6 5 8 6 7 6 6 18 16 13 12 12 14 15 17 20 17 15 16 17 19 17 13
2 9 12 15 16 9 5 7 6 4 7 7 6 4 9 6 20 14 13 12 14 14 13 14 17 19 16 14 15 18 19 16
3 8 14 15 10 2 5 4 6 5 7 8 4 10 7 8 13 16 13 13 14 15 13 13 15 17 18 16 15 17 18 16
5 12 14 12 3 4 5 8 8 10 6 4 7 11 7 8 4 16 16 13 15 18 15 13 12 15 17 17 15 16 18 17
8 12 13 7 1 4 5 7 6 4 6 4 11 9 7 8 6 14 15 14 11 11 14 15 13 12 13 16 17 15 16 17
8 9 14 9 10 3 6 4 8 5 3 3 1 9 8 9 9 10 10 12 12 10 10 10 10 13 14 14 16 16 16 16
7 4 7 9 9 8 6 3 3 4 2 8 9 5 5 5 9 6 12 13 14 14 12 13 12 10 13 16 16 16 14 15
4 4 5 9 9 10 8 9 7 7 11 6 9 8 7 5 5 10 11 12 13 13 13 12 10 11 9 9 7 8 10 10
9 4 6 7 8 7 9 7 7 7 7 11 6 9 8 8 5 6 6 7 15 15 15 14 11 8 6 5 5 5 10 11
9 8 5 7 8 6 5 9 8 10 8 6 9 8 8 8 8 8 9 6 6 16 15 15 9 10 9 7 7 7 7 10
10 9 8 10 8 9 10 11 10 9 9 8 6 7 6 8 8 8 8 3 5 4 8 13 12 11 10 9 8 8 8 10
9 12 10 12 13 5 8 11 10 9 11 10 10 10 6 7 7 8 9 7 4 7 11 8 6 14 11 10 11 9 8 10
17 19 12 12 11 10 16 12 12 14 10 10 10 9 11 10 8 8 8 9 5 8 9 7 7 11 8 9 10 10 9 10
17 13 10 6 8 11 11 8 11 11 9 10 12 13 10 11 10 9 8 8 5 4 7 9 7 6 8 9 9 9 9 9
9 9 8 5 10 8 10 7 7 8 10 11 10 11 11 11 11 11 10 9 8 7 7 9 8 7 6 12 7 10 9 10
7 12 13 10 8 13 14 11 13 11 7 5 9 6 7 9 6 9 9 9 9 7 8 8 5 4 5 7 10 5 9 11
15 13 6 7 12 18 17 12 10 13 17 19 18 15 16 8 5 6 6 7 9 9 9 4 3 4 2 6 4 9 9 14
7 13 11 13 17 22 20 8 13 17 17 16 17 19 18 16 11 7 6 9 8 9 10 7 5 3 3 4 6 6 6 12
11 11 8 14 11 9 5 18 16 16 14 16 17 19 19 19 15 13 9 9 10 11 12 11 9 7 7 6 14 10 8 4
13 10 8 4 15 9 6 11 12 14 16 16 17 19 18 21 17 16 13 10 12 14 15 12 10 9 12 14 16 15 9 6
Wind_Direction
156 191 206 250 250 294 39 62 43 17 38 87 111 64 121 174 132 134 138 139 143 142 144 147 144 142 147 148 147 140 140 142
58 266 265 249 277 291 10 13 44 75 80 69 96 113 146 132 134 130 141 131 137 139 144 152 150 145 150 154 154 147 144 149
246 259 258 270 270 279 52 21 1 11 29 96 87 89 106 134 131 138 144 141 140 141 145 155 156 152 152 159 160 154 148 151
247 262 265 275 355 92 46 31 354 33 11 163 114 75 38 31 83 136 142 147 147 150 150 151 163 160 159 159 162 161 155 156
276 288 306 336 78 77 71 29 355 57 15 58 89 77 51 356 357 129 141 138 141 149 150 151 159 165 165 163 161 164 161 157
278 271 281 5 8 52 69 18 352 76 12 268 286 30 21 4 335 118 138 135 140 146 150 151 160 175 168 171 166 162 162 160
269 316 291 348 15 350 353 54 339 343 274 283 307 30 9 10 318 13 152 154 156 156 162 158 154 175 173 174 171 162 162 162
274 4 355 344 7 330 8 353 340 343 323 325 330 14 356 316 247 292 171 171 165 160 163 160 163 162 173 175 176 169 161 160
300 342 18 332 336 333 356 337 311 299 306 324 344 338 344 337 318 272 287 167 170 170 169 166 164 155 163 173 170 178 172 164
284 300 356 298 288 305 283 258 252 269 280 293 298 299 304 310 304 316 321 38 194 171 169 172 155 161 167 174 174 182 185 179
316 324 311 314 293 272 272 264 260 257 256 257 258 263 276 278 288 297 306 75 27 169 185 176 170 165 167 177 178 185 183 183
301 287 278 258 259 231 264 266 267 256 248 230 227 220 231 255 260 278 284 283 175 190 168 196 192 173 173 175 180 175 188 186
275 263 252 241 266 232 245 233 245 237 238 223 219 213 213 216 219 225 256 273 178 181 163 200 192 186 168 177 178 183 184 184
283 323 245 199 255 269 267 232 245 231 216 211 219 212 206 209 209 215 205 235 167 203 186 181 201 196 183 184 182 186 184 183
290 316 317 324 288 275 297 303 281 257 241 234 229 217 218 213 196 195 192 198 230 172 203 199 190 204 199 202 172 189 185 184
305 302 320 326 314 321 308 314 296 297 306 40 56 28 331 286 254 211 201 200 202 203 186 185 196 205 232 207 198 185 193 187
285 288 11 328 319 296 289 289 45 46 41 30 20 2 4 359 13 249 261 214 207 202 178 166 172 196 227 247 175 201 207 194
301 342 340 318 291 280 292 100 57 43 33 25 12 1 349 340 330 306 247 232 227 210 205 177 162 170 163 217 263 232 219 185
316 314 295 284 289 319 32 58 51 39 29 20 11 354 338 325 319 304 285 235 218 215 210 211 174 169 178 182 252 254 227 259
289 304 286 300 290 310 55 42 48 35 25 8 350 336 321 306 296 296 291 281 250 214 208 199 186 175 182 193 203 227 219 233